Regional Weather Roundup
Issued by NWS Cleveland, OH

Home | Current Version | Previous Version | Graphics & Text | Print | Product List | Glossary On
Versions: 1 2 3 4 5 6 7 8 9 10 11 12 13 14 15 16 17 18 19 20 21 22 23 24 25 26 27 28 29 30 31 32 33 34 35 36 37 38 39 40 41 42 43 44 45 46 47 48 49 50
000
ASUS41 KCLE 191300
RWRCLE
OHIO REGIONAL WEATHER ROUNDUP
NATIONAL WEATHER SERVICE WILMINGTON, OH
800 AM EST THU JAN 19 2017

NOTE: "FAIR" INDICATES FEW OR NO CLOUDS BELOW 12,000 FEET WITH NO
SIGNIFICANT WEATHER AND/OR OBSTRUCTIONS TO VISIBILITY.

OHZ001>008-015>018-024>027-034-035-043-044-191400-
   NORTHWEST OHIO

CITY           SKY/WX    TMP DP  RH WIND       PRES   REMARKS
DEFIANCE       CLOUDY    33  31  92 SW3       30.08S
FINDLAY        CLOUDY    36  32  85 W5        30.07F
TOLEDO EXPRESS CLOUDY    34  33  96 SW8       30.07F WCI  27
TOLEDO EXEC    CLOUDY    35  34  96 SW5       30.08F
LIMA           CLOUDY    35  35 100 SW6       30.06F
$$

OHZ009>014-019>023-028>033-038-089-191400-
   NORTHEAST OHIO

CITY           SKY/WX    TMP DP  RH WIND       PRES   REMARKS
CLE-HOPKINS    CLOUDY    39  33  79 W9        30.12R
CLE-LAKEFRONT  CLOUDY    37  34  89 W8        30.10R
CUY CO. ARPT   CLOUDY    39  36  87 W8        30.11R
LORAIN-ELYRIA  CLOUDY    36  32  85 W10       30.10R
ASHTABULA      CLOUDY    36  33  89 SW5       30.10R
AKRON-CANTON   CLOUDY    37  33  85 SW7       30.09R
WOOSTER        NOT AVBL
MANSFIELD      CLOUDY    36  36 100 S5        30.08S
YOUNGSTOWN     CLOUDY    36  33  89 SW9       30.09R
$$

OHZ042-051>053-060>062-070>072-077>081-191400-
  SOUTHWEST OHIO

CITY           SKY/WX    TMP DP  RH WIND       PRES   REMARKS
CINC-COVINGTON CLOUDY    38  36  92 CALM      30.07S FOG
CINC-LUNKEN    FAIR      36  36 100 CALM      30.10F
HAMILTON       FAIR      36  35  96 CALM      30.09F FOG
DAYTON         NOT AVBL
WRIGHT-PAT AFB NOT AVBL
DAYTON GENERAL CLOUDY    38  35  89 SE5       30.06F
WILMINGTON     CLOUDY    37  35  92 S6        30.07F
$$

OHZ036-037-039>041-045>050-054>059-063>069-073>076-082>088-191400-
  CENTRAL AND SOUTHEAST OHIO

CITY           SKY/WX    TMP DP  RH WIND       PRES   REMARKS
COLUMBUS       CLOUDY    40  35  83 S5        30.08F
OSU AIRPORT    CLOUDY    38  36  92 CALM      30.07F
BOLTON FIELD   NOT AVBL
RICKENBACK AFB NOT AVBL
NEWARK         CLOUDY    39  35  86 CALM      30.09S
MARION         CLOUDY    36  34  92 SW3       30.08F
LANCASTER      CLOUDY    40  37  89 W3        30.10S
ZANESVILLE     CLOUDY    38  35  89 W3        30.10F
NEW PHILLY     CLOUDY    38  36  92 W7        30.12R
$$



USA.gov is the U.S. government's official web portal to all federal, state and local government web resources and services.